This demonstration page uses our WeatherBlox Daily Observations layout. Learn more.

Left ArrowRight Arrow

40.92945, -100.16068

Hourly Observations for May 19, 2015

Temp ( °F °C ) Dew Point ( °F °C ) Humidity (%) Winds ( mph kmh ) Pressure ( in mb ) Visibility ( mi km ) Precip ( " mm )
12:15 am 00:15 Clear 46 7.5 41 5 84 84 ENE 7 11 30.39 1029 10 16 N/A
12:35 am 00:35 Clear 45 7.1 40 4.7 85 85 E 7 11 30.39 1029 10 16 N/A
12:55 am 00:55 Clear 45 7 40 4.5 84 84 E 7 11 30.39 1029 10 16 N/A
1:15 am 01:15 Clear 45 7 40 4.6 85 85 ENE 8 13 30.39 1029 10 16 N/A
1:35 am 01:35 Partly Cloudy 46 7.5 40 4.7 83 83 ENE 6 9 30.39 1029 10 16 N/A
1:55 am 01:55 Clear 44 6.9 40 4.2 83 83 ENE 6 9 30.39 1029 10 16 N/A
2:15 am 02:15 Clear 44 6.7 40 4.2 84 84 ENE 7 11 30.36 1028 10 16 N/A
2:35 am 02:35 Partly Cloudy 45 7 39 4 81 81 ENE 8 13 30.36 1028 10 16 N/A
2:55 am 02:55 Mostly Cloudy 46 7.6 40 4.2 79 79 E 6 9 30.39 1029 10 16 N/A
3:15 am 03:15 Partly Cloudy 46 7.8 40 4.2 78 78 E 9 15 30.36 1028 10 16 N/A
3:35 am 03:35 Mostly Cloudy 46 8 39 3.8 75 75 ENE 14 22 30.33 1027 10 16 N/A
3:55 am 03:55 Mostly Cloudy 46 7.8 39 3.7 76 76 E 9 15 30.36 1028 10 16 N/A
4:15 am 04:15 Mostly Cloudy 46 7.6 38 3.6 76 76 E 14 22 30.36 1028 10 16 N/A
4:35 am 04:35 Mostly Cloudy 45 7.3 39 3.7 78 78 E 10 17 30.36 1028 10 16 N/A
4:55 am 04:55 Partly Cloudy 45 7 38 3.4 78 78 E 18 30 30.36 1028 10 16 N/A
5:15 am 05:15 Partly Cloudy 44 6.7 38 3.5 80 80 E 15 24 30.36 1028 10 16 N/A
5:35 am 05:35 Partly Cloudy 44 6.4 38 3.3 81 81 E 15 24 30.39 1029 10 16 N/A
5:55 am 05:55 Partly Cloudy 43 6.1 38 3.3 82 82 ENE 15 24 30.36 1028 10 16 N/A
6:15 am 06:15 Clear 42 5.7 38 3.1 84 84 E 10 17 30.39 1029 10 16 N/A
6:35 am 06:35 Sunny 42 5.5 37 3 84 84 E 13 20 30.39 1029 10 16 N/A
6:55 am 06:55 Sunny 42 5.4 37 2.9 84 84 E 12 19 30.39 1029 10 16 N/A
7:15 am 07:15 Partly Cloudy 42 5.3 37 2.8 84 84 E 9 15 30.39 1029 10 16 N/A
7:35 am 07:35 Sunny 41 5.2 37 2.9 85 85 E 10 17 30.39 1029 10 16 N/A
7:55 am 07:55 Sunny 42 5.3 37 3 85 85 E 12 19 30.39 1029 10 16 N/A
8:15 am 08:15 Partly Cloudy 42 5.5 38 3.1 85 85 E 13 20 30.39 1029 10 16 N/A
8:35 am 08:35 Mostly Cloudy 42 5.5 37 2.9 84 84 E 9 15 30.42 1030 10 16 N/A
8:55 am 08:55 Partly Cloudy 42 5.5 37 2.6 82 82 ENE 10 17 30.39 1029 10 16 N/A
9:15 am 09:15 Partly Cloudy 41 5.2 36 2 80 80 ENE 10 17 30.39 1029 10 16 N/A
9:35 am 09:35 Partly Cloudy 42 5.5 36 2.1 79 79 ENE 8 13 30.42 1030 10 16 N/A
9:55 am 09:55 Partly Cloudy 42 5.7 37 2.5 80 80 ENE 9 15 30.39 1029 10 16 N/A
10:15 am 10:15 Sunny 43 6.1 37 3 81 81 ENE 8 13 30.39 1029 10 16 N/A
10:35 am 10:35 Mostly Cloudy 43 6.1 38 3.2 82 82 ENE 7 11 30.42 1030 10 16 N/A
10:55 am 10:55 Cloudy 42 5.7 36 2.1 78 78 ENE 6 9 30.42 1030 10 16 N/A
11:15 am 11:15 Mostly Cloudy with Light Rain 42 5.6 36 2.1 78 78 NE 9 15 30.42 1030 10 16 N/A
11:35 am 11:35 Mostly Cloudy with Rain 42 5.6 37 3 84 84 ENE 5 7 30.42 1030 10 16 N/A
11:55 am 11:55 Cloudy with Light Rain 42 5.5 38 3.1 85 85 NE 8 13 30.42 1030 10 16 0.02 0.51
12:15 pm 12:15 Mostly Cloudy with Light Rain 42 5.5 37 3 84 84 NE 9 15 30.39 1029 10 16 N/A
12:35 pm 12:35 Mostly Cloudy with Light Rain 42 5.5 37 3 84 84 NNE 14 22 30.36 1028 10 16 N/A
12:55 pm 12:55 Mostly Cloudy with Light Rain 41 5.2 37 3 86 86 NNE 13 20 30.33 1027 10 16 0.02 0.51
1:15 pm 13:15 Mostly Cloudy with Light Rain 41 5.2 38 3.1 86 86 NNE 9 15 30.36 1028 10 16 N/A
1:35 pm 13:35 Cloudy with Rain 41 5.1 37 2.9 86 86 ENE 5 7 30.39 1029 7 11 0.02 0.51
1:55 pm 13:55 Cloudy with Rain 41 5.2 38 3.2 87 87 NE 3 6 30.39 1029 7 11 0.05 1.27
2:15 pm 14:15 Cloudy with Light Rain 42 5.3 38 3.5 88 88 NE 6 9 30.36 1028 10 16 0.02 0.51
2:35 pm 14:35 Cloudy with Light Rain 41 5.1 38 3.4 89 89 NE 9 15 30.36 1028 10 16 0.03 0.76
2:55 pm 14:55 Cloudy with Light Rain 41 5.2 38 3.6 90 90 ENE 15 24 30.36 1028 7 11 0.06 1.52
3:15 pm 15:15 Cloudy with Light Rain 41 5 38 3.5 90 90 ENE 15 24 30.33 1027 7 11 0.02 0.51
3:35 pm 15:35 Cloudy with Light Rain 41 5 38 3.6 91 91 ENE 18 30 30.30 1026 5 8 0.05 1.27
3:55 pm 15:55 Cloudy with Light Rain 41 4.8 38 3.5 91 91 ENE 20 31 30.30 1026 5 8 0.10 2.54
4:15 pm 16:15 Cloudy with Light Rain 41 4.8 38 3.5 91 91 ENE 18 30 30.27 1025 5 8 0.04 1.02
4:35 pm 16:35 Cloudy with Light Rain 41 4.8 38 3.5 91 91 ENE 14 22 30.27 1025 10 16 0.06 1.52
4:55 pm 16:55 Cloudy with Light Rain 41 5 39 3.8 92 92 ENE 22 35 30.24 1024 5 8 0.09 2.29
5:15 pm 17:15 Mostly Cloudy 42 5.4 39 4.1 91 91 ENE 21 33 30.24 1024 10 16 N/A
5:35 pm 17:35 Cloudy with Drizzle 41 5.1 39 3.8 91 91 NE 15 24 30.24 1024 10 16 0.01 0.25
5:55 pm 17:55 Cloudy with Light Rain 41 5.1 39 3.8 91 91 NE 17 28 30.24 1024 10 16 0.01 0.25
6:15 pm 18:15 Cloudy with Rain 41 5.2 39 4 92 92 NE 13 20 30.24 1024 4 6 0.04 1.02
6:35 pm 18:35 Cloudy with Rain 42 5.3 39 4.1 92 92 NE 12 19 30.24 1024 7 11 0.06 1.52
6:55 pm 18:55 Cloudy with Rain 42 5.3 39 4.1 92 92 NNE 7 11 30.27 1025 5 8 0.10 2.54
7:15 pm 19:15 Cloudy with Rain 42 5.5 40 4.3 92 92 NNE 7 11 30.24 1024 3 5 0.05 1.27
7:35 pm 19:35 Cloudy with Light Rain 42 5.3 40 4.2 93 93 NNE 7 11 30.27 1025 5 8 0.09 2.29
7:55 pm 19:55 Cloudy with Rain 42 5.3 40 4.3 93 93 NNE 8 13 30.27 1025 5 8 0.12 3.05
8:15 pm 20:15 Cloudy with Rain 41 5.1 39 4.1 93 93 NNE 10 17 30.24 1024 3 5 0.05 1.27
8:35 pm 20:35 Cloudy with Rain 41 5 39 4 93 93 NNE 8 13 30.27 1025 5 8 0.09 2.29
8:55 pm 20:55 Cloudy with Rain 41 5 39 4 93 93 NNE 8 13 30.27 1025 4 6 0.13 3.30
9:15 pm 21:15 Cloudy with Rain 41 5.1 40 4.2 94 94 NNE 6 9 30.27 1025 5 8 0.04 1.02
9:35 pm 21:35 Cloudy with Light Rain 41 5.1 40 4.2 94 94 NE 6 9 30.27 1025 5 8 0.07 1.78
9:55 pm 21:55 Cloudy with Light Rain 41 5 39 4.1 94 94 ENE 7 11 30.30 1026 5 8 0.11 2.79
10:15 pm 22:15 Cloudy with Light Rain 41 5 39 4.1 94 94 NE 10 17 30.30 1026 7 11 0.02 0.51
10:35 pm 22:35 Cloudy with Light Rain 41 5 39 4.1 94 94 ENE 10 17 30.30 1026 7 11 0.03 0.76
10:55 pm 22:55 Cloudy 41 5.2 40 4.3 94 94 NE 9 15 30.30 1026 7 11 0.03 0.76
11:15 pm 23:15 Cloudy 42 5.3 40 4.5 95 95 ENE 8 13 30.30 1026 7 11 N/A
11:35 pm 23:35 Cloudy 41 5.2 40 4.3 94 94 ENE 6 9 30.30 1026 7 11 N/A
11:55 pm 23:55 Cloudy with Mist and Fog 41 5.2 40 4.3 94 94 NE 8 13 30.30 1026 4 6 N/A

Powered by AerisWeather